Vorticity
3 5 9 7 5 4 1 2 3 6 6 5 5 4 8 6 2 6 8 8 6 9 4 9 8 8 9 7 4 -0 3 5 7 17 6 15 15 11 16 18 -5 4 5 8 9 7 1
9 11 8 6 5 5 2 1 4 4 4 7 6 6 5 4 5 5 7 5 7 -3 2 6 7 8 9 6 7 3 -0 6 13 7 11 25 15 6 9 17 6 -3 -5 -6 6 13 9
4 7 5 9 7 5 5 4 2 4 5 6 4 6 6 4 5 4 6 5 7 10 1 4 4 9 8 7 8 6 1 5 16 5 12 24 15 10 10 7 17 10 -5 5 13 -6 2
7 6 8 8 8 6 7 4 5 3 6 4 5 6 5 5 9 4 4 4 5 8 2 2 3 7 9 7 3 4 3 3 16 6 12 22 8 12 19 8 11 9 15 3 9 8 7
4 5 7 9 8 9 11 10 8 5 4 7 5 3 4 8 6 10 8 5 5 8 17 13 3 4 11 7 0 5 3 6 13 6 10 19 6 8 14 7 8 13 3 -3 8 3 6
2 3 2 5 6 6 6 6 10 11 9 7 6 6 5 4 7 5 6 10 4 11 4 21 9 6 11 7 3 5 -1 4 10 6 6 13 15 9 15 16 6 7 8 -2 2 -2 -3
1 0 -1 1 6 5 6 6 4 5 7 12 8 9 8 7 2 2 4 1 7 10 -1 6 21 1 13 7 1 3 2 6 7 7 14 10 12 9 13 21 8 9 11 -1 -8 -5 17
1 1 2 1 2 0 1 3 5 7 5 7 12 6 8 8 9 4 3 10 -2 11 -2 4 14 9 13 7 1 3 4 6 7 10 5 3 14 15 12 18 6 7 4 11 9 -3 31
2 2 4 3 5 6 9 5 8 9 9 8 7 10 5 6 7 8 5 5 8 2 1 14 7 11 11 9 2 6 4 3 7 7 7 13 9 24 8 12 3 10 7 7 7 14 29
8 2 4 1 -0 10 11 14 9 7 11 8 7 9 7 6 15 7 8 8 9 14 8 7 11 14 7 8 6 5 1 3 8 4 10 11 8 10 3 9 7 5 13 8 1 10 3
54 47 42 16 26 21 6 -7 19 11 9 7 6 8 9 8 -1 10 12 13 8 13 5 11 14 12 16 4 6 11 10 6 6 5 12 4 7 8 2 7 11 -3 14 2 4 13 6
5 11 23 33 49 41 38 49 45 0 18 9 6 7 9 9 7 14 6 8 8 10 3 4 5 11 17 9 -0 -2 2 3 4 3 9 7 16 7 6 14 9 5 9 7 6 2 -1
15 17 12 10 6 5 15 32 34 14 29 17 7 6 8 10 6 8 10 11 9 5 8 7 0 16 14 20 12 -0 5 10 4 8 9 12 15 8 -1 12 10 6 8 2 9 3 1
5 5 3 8 17 10 14 4 57 19 7 18 12 6 7 7 -0 10 7 13 13 4 1 -1 5 3 26 15 25 4 9 10 1 6 5 15 8 10 6 19 16 7 10 7 1 6 5
2 4 10 9 14 13 20 15 7 73 13 8 9 7 6 3 6 7 10 11 6 7 5 4 10 6 15 20 -0 11 3 6 5 2 5 17 12 8 11 23 4 -1 4 6 4 5 2
20 11 1 15 6 10 16 19 17 -5 72 17 12 10 5 3 8 5 8 13 4 8 9 14 12 12 14 14 7 3 4 6 6 5 9 14 13 9 7 14 13 2 5 3 2 -1 3
11 14 4 -3 9 16 15 20 19 5 -9 55 19 8 8 6 11 6 9 2 9 11 10 10 6 24 17 -5 5 1 8 12 4 8 10 12 10 10 3 9 16 13 1 2 -2 4 4
48 41 35 38 33 18 16 16 19 14 2 24 34 17 10 11 7 -4 13 -6 8 1 8 7 8 25 24 1 16 8 3 6 8 12 6 14 12 15 6 2 8 7 2 4 7 -1 0
4 50 20 16 21 23 14 12 16 23 7 -6 64 12 3 13 3 -6 -1 -1 3 4 6 23 14 21 9 -5 1 -2 4 5 6 10 5 5 4 14 15 6 1 1 6 2 8 9 4
-10 27 27 7 23 33 14 10 9 26 11 -6 25 32 11 8 8 8 7 2 -1 7 5 16 6 27 7 2 11 5 7 9 8 5 8 5 9 10 20 13 15 11 14 14 3 6 3
14 17 51 35 23 11 19 7 12 12 18 -2 18 43 21 8 4 6 7 4 -6 0 10 11 5 15 -0 9 8 1 8 8 14 4 6 2 5 12 17 18 13 2 2 -2 1 -2 9
31 18 28 43 37 3 13 5 13 9 14 2 12 54 23 13 7 4 7 13 2 6 5 10 11 6 6 8 5 1 7 8 3 5 4 0 2 8 10 12 9 13 13 18 16 3 9
13 10 38 11 24 -5 21 18 10 11 9 5 -2 49 36 12 6 6 10 -1 -5 5 3 4 17 -12 8 13 9 9 4 4 8 2 11 5 -1 8 6 12 14 -2 17 8 1 9 11
37 24 30 12 12 44 17 1 17 14 11 3 -7 51 37 12 8 9 7 6 -3 1 0 13 18 -2 -7 24 6 3 2 5 4 7 6 3 3 5 10 4 8 2 8 4 7 9 6
27 44 8 18 29 24 15 -8 18 18 9 8 -6 53 36 15 9 8 5 0 4 8 9 4 3 25 5 1 16 7 9 3 3 5 2 8 10 6 2 2 5 14 8 6 8 6 7
36 22 16 29 24 22 10 2 10 16 9 8 9 46 33 19 8 5 5 4 4 6 5 5 6 10 5 4 6 10 -6 6 2 2 4 2 1 10 8 2 13 3 7 4 6 10 28
34 12 18 21 20 33 8 14 2 14 6 9 10 45 27 22 12 8 5 -0 4 5 4 3 2 14 6 14 3 8 9 6 4 9 3 5 5 7 18 5 13 1 5 3 6 11 11
9 23 31 8 26 31 2 2 8 10 10 6 -0 27 43 12 11 7 10 9 9 7 4 7 6 2 9 22 6 0 7 8 -2 -2 15 9 3 3 13 11 -4 0 6 3 11 12 14
21 26 2 26 32 8 14 8 13 4 7 10 -1 38 37 28 -8 28 6 8 2 6 5 6 15 5 4 15 8 9 2 4 -3 13 -9 -2 1 10 9 17 12 6 8 8 13 12 16
Height
5757 5759 5761 5761 5764 5766 5768 5770 5773 5775 5777 5779 5781 5783 5786 5788 5790 5792 5794 5796 5797 5799 5799 5798 5797 5797 5796 5796 5794 5792 5788 5785 5781 5776 5772 5767 5765 5763 5761 5761 5763 5766 5768 5770 5770 5771 5770
5743 5745 5748 5751 5753 5755 5757 5759 5762 5765 5766 5769 5771 5774 5776 5779 5781 5784 5785 5788 5790 5792 5793 5792 5792 5792 5792 5791 5790 5789 5786 5782 5778 5773 5769 5765 5763 5763 5761 5762 5764 5767 5769 5772 5771 5771 5770
5731 5733 5734 5737 5741 5743 5745 5747 5750 5753 5756 5758 5760 5763 5766 5769 5772 5774 5777 5779 5783 5785 5786 5787 5787 5786 5786 5786 5785 5785 5782 5779 5775 5771 5767 5763 5763 5762 5761 5762 5763 5766 5770 5770 5771 5772 5770
5717 5719 5721 5723 5726 5729 5733 5736 5739 5741 5744 5746 5750 5752 5756 5759 5762 5766 5768 5770 5773 5777 5779 5780 5781 5781 5781 5779 5780 5780 5779 5777 5773 5769 5766 5763 5762 5761 5760 5761 5763 5766 5768 5769 5770 5772 5773
5701 5704 5707 5710 5712 5715 5718 5722 5725 5729 5732 5735 5737 5741 5744 5748 5753 5757 5760 5762 5765 5769 5771 5772 5773 5774 5775 5775 5775 5775 5774 5774 5771 5767 5765 5763 5761 5761 5760 5760 5763 5765 5767 5768 5770 5772 5773
5682 5686 5688 5692 5696 5700 5703 5707 5710 5714 5719 5722 5724 5728 5732 5737 5742 5746 5750 5755 5757 5760 5763 5763 5766 5769 5771 5771 5771 5771 5770 5770 5769 5766 5764 5762 5761 5761 5759 5760 5762 5764 5766 5768 5770 5772 5773
5663 5666 5668 5672 5677 5682 5688 5693 5696 5699 5704 5710 5713 5714 5720 5725 5731 5737 5741 5746 5750 5752 5755 5757 5759 5760 5763 5765 5764 5766 5765 5766 5766 5764 5762 5760 5760 5759 5758 5759 5760 5763 5765 5766 5767 5770 5771
5642 5645 5649 5652 5656 5661 5668 5674 5680 5685 5689 5694 5700 5704 5707 5713 5719 5725 5730 5735 5740 5742 5747 5750 5751 5755 5756 5757 5760 5761 5761 5763 5762 5760 5759 5759 5758 5756 5757 5758 5760 5762 5764 5765 5765 5767 5769
5618 5622 5624 5628 5634 5640 5646 5654 5661 5668 5674 5679 5683 5691 5693 5700 5708 5712 5718 5724 5729 5733 5737 5743 5743 5749 5749 5752 5754 5756 5756 5757 5758 5756 5756 5756 5757 5756 5756 5757 5760 5762 5762 5763 5764 5767 5767
5590 5594 5598 5604 5610 5615 5623 5631 5639 5649 5657 5662 5668 5673 5681 5687 5696 5701 5707 5713 5718 5722 5728 5735 5736 5740 5740 5745 5748 5750 5751 5753 5754 5752 5753 5754 5754 5754 5755 5756 5756 5759 5762 5762 5763 5766 5768
5565 5568 5572 5577 5582 5589 5600 5609 5618 5628 5638 5645 5652 5659 5665 5673 5683 5689 5695 5701 5707 5714 5719 5724 5728 5730 5735 5740 5744 5745 5747 5747 5749 5748 5751 5751 5751 5752 5752 5754 5755 5757 5760 5761 5762 5764 5766
5548 5549 5550 5554 5558 5565 5572 5581 5593 5604 5617 5628 5637 5643 5651 5661 5670 5674 5683 5689 5695 5704 5709 5712 5718 5721 5726 5731 5734 5737 5740 5742 5743 5743 5746 5746 5748 5750 5751 5752 5753 5754 5756 5759 5761 5762 5764
5530 5533 5535 5538 5543 5547 5552 5559 5568 5577 5591 5606 5619 5627 5636 5648 5660 5658 5666 5676 5683 5691 5700 5704 5708 5712 5717 5722 5725 5729 5735 5738 5739 5740 5742 5742 5743 5746 5747 5749 5750 5750 5753 5755 5759 5760 5761
5511 5513 5516 5519 5524 5530 5535 5543 5548 5556 5564 5578 5594 5607 5619 5633 5642 5644 5651 5660 5669 5684 5689 5692 5697 5701 5709 5712 5716 5722 5728 5730 5733 5735 5736 5737 5738 5742 5743 5745 5747 5747 5750 5753 5754 5756 5758
5489 5490 5494 5499 5504 5509 5517 5524 5532 5539 5545 5554 5568 5582 5600 5617 5625 5627 5635 5642 5664 5673 5678 5685 5687 5693 5698 5704 5707 5715 5720 5726 5727 5730 5732 5732 5733 5737 5738 5741 5743 5744 5747 5750 5751 5753 5755
5463 5465 5469 5474 5482 5489 5496 5505 5514 5522 5529 5538 5544 5561 5580 5598 5606 5610 5616 5635 5651 5660 5667 5676 5679 5684 5689 5697 5702 5707 5713 5720 5722 5724 5726 5727 5729 5732 5734 5736 5738 5741 5744 5746 5748 5750 5750
5432 5436 5441 5448 5456 5466 5477 5485 5495 5504 5512 5518 5528 5538 5565 5576 5582 5586 5602 5628 5639 5646 5656 5664 5671 5675 5682 5689 5696 5701 5709 5714 5716 5718 5719 5720 5723 5728 5729 5731 5735 5737 5739 5742 5744 5745 5745
5395 5398 5406 5415 5428 5441 5454 5465 5476 5484 5492 5496 5510 5526 5547 5551 5553 5570 5599 5617 5627 5633 5643 5654 5662 5666 5672 5677 5688 5693 5699 5707 5709 5712 5713 5715 5717 5720 5725 5727 5729 5732 5735 5737 5737 5741 5741
5369 5371 5380 5392 5403 5417 5432 5446 5457 5465 5473 5483 5491 5518 5526 5531 5538 5562 5592 5602 5614 5623 5632 5644 5652 5656 5662 5669 5679 5686 5692 5698 5701 5705 5707 5709 5711 5714 5718 5721 5723 5726 5729 5731 5733 5736 5735
5345 5349 5357 5370 5385 5397 5413 5429 5441 5450 5458 5469 5476 5490 5501 5518 5543 5563 5569 5587 5603 5612 5623 5633 5642 5646 5654 5663 5671 5679 5688 5690 5695 5698 5701 5702 5705 5708 5712 5718 5721 5722 5726 5727 5728 5728 5729
5323 5327 5334 5347 5364 5382 5396 5412 5425 5435 5444 5453 5458 5469 5494 5502 5522 5548 5561 5576 5588 5604 5613 5622 5634 5638 5647 5655 5662 5672 5681 5684 5688 5691 5694 5696 5700 5704 5708 5710 5712 5716 5718 5719 5720 5722 5721
5298 5306 5315 5327 5345 5364 5382 5397 5410 5421 5431 5439 5447 5462 5481 5507 5533 5535 5542 5559 5577 5595 5605 5615 5627 5634 5641 5649 5657 5666 5672 5678 5680 5685 5688 5691 5695 5699 5701 5704 5706 5708 5711 5712 5714 5716 5716
5278 5288 5299 5314 5330 5349 5367 5384 5398 5408 5417 5429 5445 5458 5476 5497 5510 5523 5537 5552 5565 5584 5596 5608 5619 5626 5634 5647 5652 5659 5663 5669 5674 5678 5681 5685 5690 5693 5695 5698 5700 5701 5705 5706 5708 5709 5710
5259 5272 5286 5303 5319 5335 5355 5373 5388 5398 5414 5431 5441 5451 5463 5481 5499 5521 5532 5542 5556 5579 5591 5600 5609 5617 5630 5635 5641 5648 5656 5661 5666 5671 5676 5680 5684 5687 5689 5691 5690 5698 5700 5701 5701 5703 5702
5245 5260 5278 5294 5309 5327 5346 5364 5381 5395 5410 5422 5436 5442 5454 5473 5499 5513 5520 5532 5546 5567 5579 5591 5602 5609 5617 5626 5632 5639 5645 5652 5657 5664 5669 5675 5679 5680 5681 5684 5688 5690 5694 5696 5694 5696 5695
5241 5258 5274 5289 5305 5321 5342 5360 5376 5392 5405 5418 5428 5434 5446 5466 5484 5503 5512 5523 5538 5556 5571 5584 5592 5601 5608 5615 5621 5627 5636 5643 5651 5655 5663 5668 5671 5674 5675 5676 5680 5687 5688 5689 5688 5689 5687
5246 5261 5274 5289 5304 5321 5341 5359 5375 5390 5402 5414 5422 5431 5440 5457 5477 5492 5503 5515 5532 5546 5562 5577 5586 5592 5598 5607 5613 5621 5628 5637 5642 5649 5657 5661 5665 5666 5669 5670 5676 5679 5680 5680 5680 5682 5678
5255 5266 5278 5293 5307 5325 5344 5360 5375 5388 5399 5410 5419 5426 5436 5454 5470 5483 5495 5504 5523 5539 5555 5569 5578 5582 5590 5596 5602 5610 5618 5628 5636 5642 5649 5654 5658 5660 5662 5664 5668 5673 5672 5673 5672 5670 5670
5263 5274 5286 5299 5315 5332 5347 5362 5375 5388 5398 5408 5418 5425 5434 5449 5468 5477 5492 5502 5517 5533 5548 5562 5575 5582 5586 5592 5595 5603 5611 5621 5629 5635 5643 5647 5652 5654 5657 5659 5662 5665 5665 5665 5664 5663 5662